Regional Weather Roundup
Issued by NWS

Home | Current Version | Previous Version | Text Only | Print | Product List | Glossary Off
Versions: 1 2 3 4 5 6 7 8 9 10 11 12 13 14 15 16 17 18 19 20 21 22 23 24 25 26 27 28 29 30 31 32 33 34 35 36 37 38 39 40 41 42 43 44 45 46 47 48 49 50

000
ASUS43 KMPX 210901
RWRMN
WEATHER ROUNDUP FOR MINNESOTA
NATIONAL WEATHER SERVICE TWIN CITIES/CHANHASSEN MN
400 AM CDT FRI JUL 21 2017


NOTE: "FAIR" INDICATES FEW OR NO CLOUDS BELOW 12,000 FEET WITH NO
SIGNIFICANT WEATHER AND/OR OBSTRUCTIONS TO VISIBILITY. N/A MEANS
CURRENT SKY AND/OR WEATHER CONDITIONS ARE NOT AVAILABLE.

MNZ060>063-068>070-211000-
   Twin Cities Metro

CITY           SKY/WX    TMP DP  RH WIND       PRES   REMARKS
TWIN CITIES    PTCLDY    70  67  90 E7        29.95F
ST PAUL        PTCLDY    67  67 100 CALM      29.95F FOG
CRYSTAL        FOG       63  61  93 CALM      29.94F VSB 1/4
BLAINE         PTCLDY    64  64 100 CALM      29.96F FOG
LAKEVILLE      FOG       63  63 100 CALM      29.95F VSB 1/4
EDEN PRAIRIE   CLEAR     69  67  93 NE7       29.93F FOG
SOUTH ST PAUL  PTCLDY    68  68  99 CALM      29.95F FOG
LAKE ELMO      FOG       63  63 100 CALM      29.98F VSB 1
$$
MNZ001>005-007-008-013>017-022>024-027-028-211000-
   Northwest Minnesota

CITY           SKY/WX    TMP DP  RH WIND       PRES   REMARKS
BEMIDJI        CLOUDY    66  60  81 SE3       29.94S
HALLOCK        MOCLDY    68  61  77 E9        29.87F
ROSEAU           N/A     64  59  82 CALM      29.92S
WARROAD        MOCLDY    64  61  88 CALM      29.94R
CROOKSTON      CLOUDY    70  64  83 SE8       29.87F
FOSSTON        CLOUDY    64  57  77 CALM      29.91F
DETROIT LAKES  CLOUDY    72  66  83 SE7       29.91F
MOORHEAD       CLOUDY    73  66  78 S9        29.87F
PARK RAPIDS      N/A     69  65  86 SE5       29.94S
MAHNOMEN       FAIR      70  65  86 SE6       29.90S
$$
MNZ006-009>011-018-025>026-211000-
   North Central Minnesota

CITY           SKY/WX    TMP DP  RH WIND       PRES   REMARKS
BAUDETTE       LGT RAIN  59  57  93 NW7       29.97R
FLAG ISLAND    HVY RAIN  66  63  88 CALM      29.93R
INTL FALLS     MOCLDY    54  52  93 CALM      29.94F
WASKISH        PTCLDY    61  54  77 SE5       29.93F
BIG FORK       CLOUDY    57  55  94 NE3       29.94F
LONGVILLE      CLOUDY    63  63 100 CALM      29.95S FOG
GRAND RAPIDS   CLOUDY    60  59  96 S3        29.97F
CRANE LAKE     PTCLDY    52  52 100 CALM      29.98S
ORR            CLOUDY    55  54  94 CALM      29.95R
COOK           PTCLDY    55  55 100 CALM      29.97F
WALKER         FAIR      66  63  89 CALM      29.94S
$$
MNZ012-019>021-037-211000-
   Northeast Minnesota

CITY           SKY/WX    TMP DP  RH WIND       PRES   REMARKS
DULUTH         CLOUDY    63  60  90 CALM      29.96F
ELY            CLOUDY    54  54 100 CALM      29.97F
HIBBING        CLOUDY    54  54 100 CALM      29.96F
EVELETH        CLOUDY    55  52  90 NE3       29.97F
DULUTH HARBOR  CLOUDY    68  66  94 E3        29.94F
TWO HARBORS    CLOUDY    64  59  82 N3        29.95F
GRAND MARAIS     N/A     59  52  77 CALM      29.95R
G MARAIS ARPRT CLEAR     54  46  76 CALM      30.00R
$$
MNZ029>031-032-039>041-046>048-054>057-064-211000-
   West Central Minnesota

CITY           SKY/WX    TMP DP  RH WIND       PRES   REMARKS
FERGUS FALLS   CLOUDY    72  70  94 E6        29.89F
WHEATON        CLOUDY    72  68  88 SE5       29.89R
MORRIS         CLOUDY    72  70  94 SE10      29.88F
ALEXANDRIA     MOCLDY    69  67  93 SE9       29.93F
ELBOW LAKE     FAIR      69  68  96 E8        29.89S
WADENA         CLOUDY    64  64 100 E5        29.94F
GLENWOOD       CLOUDY    66  64  94 SE7       29.94F FOG
APPLETON       PTCLDY    70  66  88 SE7       29.89F
BENSON         CLOUDY    72  68  88 SE8       29.91F
ORTONVILLE     CLOUDY    72  68  88 MISG      29.87F
MADISON        CLOUDY    70  70 100 SE6       29.89F FOG
WILLMAR        FAIR      70  68  94 E6        29.92F
$$
MNZ033>034-036-042>043-049>051-058-059-211000-
   Central Minnesota

CITY           SKY/WX    TMP DP  RH WIND       PRES   REMARKS
ST CLOUD       CLOUDY    65  65 100 E3        29.93F FOG
SAUK CENTRE    FAIR      64  63  98 SE3       29.93F FOG
PAYNESVILLE    PTCLDY    69  67  95 E3        29.94F
AITKIN         CLOUDY    63  61  94 CALM      29.94F FOG
PINE RIVER     CLOUDY    66  66 100 CALM      29.97F
BRAINERD       CLOUDY    66  65  96 SE5       29.94F
STAPLES        CLOUDY    66  64  94 CALM      29.95S
LONG PRAIRIE   FAIR      64  64 100 SE3       29.94F
LITTLE FALLS   CLOUDY    64  63  94 CALM      29.95F
LITCHFIELD     FOG       66  66 100 SE3       29.93F VSB 1/2
BUFFALO        PTCLDY    63  61  91 CALM      29.94F FOG
MAPLE LAKE     FOG       65  65  99 CALM      29.94F VSB 1
HUTCHINSON     MOCLDY    69  69  99 E6        29.94F
$$
MNZ037-044-045-052-053-211000-
   East Central Minnesota

CITY           SKY/WX    TMP DP  RH WIND       PRES   REMARKS
PRINCETON      CLOUDY    64  63  94 CALM      29.95F
MORA           PTCLDY    64  64 100 CALM      29.97F FOG
CAMBRIDGE      MOCLDY    68  64  88 CALM      29.94F
RUSH CITY      CLOUDY    64  63  96 CALM      29.97F
MOOSE LAKE     CLOUDY    61  59  94 CALM      29.93F
HINCKLEY       FAIR      64  64 100 CALM      29.96S
CLOQUET        CLOUDY    64  61  88 CALM      29.95F
MCGREGOR       CLOUDY    64  63  94 S3        29.96S
$$
MNZ071>073-080-081-089-090-097-098-211000-
   Southwest Minnesota

CITY           SKY/WX    TMP DP  RH WIND       PRES   REMARKS
MONTEVIDEO     MOCLDY    66  66 100 CALM      29.90F FOG
GRANITE FALLS  MOCLDY    71  69  94 E3        29.91F
CANBY          FOG       66  65  96 CALM      29.90F VSB 1/4
MARSHALL       MOCLDY    70  69  97 CALM      29.89F
REDWOOD FALLS  MOCLDY    70  67  90 E6        29.89F
OLIVIA         MOCLDY    70  68  94 E5        29.90F
PIPESTONE      PTCLDY    73  72  94 E6        29.89F
WINDOM         PTCLDY    73  70  88 SE7       29.90F
WORTHINGTON    CLOUDY    73  72  96 E6        29.91F
JACKSON        MOCLDY    72  70  94 CALM      29.91F
TRACY          PTCLDY    71  70  98 CALM      29.90F
SLAYTON        PTCLDY    71  68  92 SE7       29.93F THUNDER FOG
$$
MNZ065>067-074>077-082>085-091>093-211000-
   South Central Minnesota

CITY           SKY/WX    TMP DP  RH WIND       PRES   REMARKS
MANKATO        CLEAR     70  68  93 SE8       29.92F
NEW ULM        PTCLDY    70  66  88 SE7       29.90F
ST JAMES       CLEAR     70  68  94 E5        29.91F
FAIRMONT       PTCLDY    71  70  96 SE7       29.91F
GLENCOE        FOG       66  66 100 CALM      29.93F VSB 1/2
FARIBAULT      FOG       61  61 100 CALM      29.94F VSB 3/4
OWATONNA       CLOUDY    66  64  94 E3        29.95F
WASECA         CLOUDY    64  63  94 E3        29.95F
ALBERT LEA     CLOUDY    72  66  83 SE5       29.94F
$$
MNZ078>079-086>088-094>096-211000-
   Southeast Minnesota

CITY           SKY/WX    TMP DP  RH WIND       PRES   REMARKS
ROCHESTER      CLOUDY    65  65 100 E5        29.97F
RED WING       PTCLDY    66  64  94 CALM      29.96F
STANTON        FOG       64  62  94 NE3       29.94F VSB 1/4
DODGE CENTER   CLOUDY    64  63  94 SE5       29.96F FOG
WINONA         CLOUDY    64  64 100 CALM      29.97F
AUSTIN         CLOUDY    68  64  88 CALM      29.95F
PRESTON        CLOUDY    67  64  87 SE5       29.98F
$$
ABBREVIATIONS USED IN REMARKS
   TC - TEMPERATURES IN CELSIUS
  WCI - WIND CHILL INDEX
   HX - HEAT INDEX
  VSB - VISIBILITY
$$




USA.gov is the U.S. government's official web portal to all federal, state and local government web resources and services.